Regional Weather Roundup
Issued by NWS New Orleans/Baton Rouge, LA

Home | Current Version | Previous Version | Text Only | Print | Product List | Glossary On
Versions: 1 2 3 4 5 6 7 8 9 10 11 12 13 14 15 16 17 18 19 20 21 22 23 24 25 26 27 28 29 30 31 32 33 34 35 36 37 38 39 40 41 42 43 44 45 46 47 48 49 50
197
ASUS44 KLIX 280410
RWRLIX
NEW ORLEANS REGIONAL WEATHER ROUNDUP
NATIONAL WEATHER SERVICE NEW ORLEANS LA
1100 PM CDT SUN JUL 27 2014

NOTE: "FAIR" INDICATES FEW OR NO CLOUDS BELOW 12,000 FEET WITH NO
      SIGNIFICANT WEATHER AND/OR OBSTRUCTIONS TO VISIBILITY.
      SKY/WX - SKY CONDITION AND SIGNIFICANT WEATHER.
      TMP - AIR TEMPERATURE.     DP    - DEWPOINT TEMPERATURE.
      RH  - RELATIVE HUMIDITY.   PRES  - PRESSURE.
      HI  - HEAT INDEX.          WCI   - WIND CHILL INDEX.

*  THESE STATIONS ARE NOT NWS OR FAA STATIONS AND ARE NOT UNDER
   NWS QUALITY CONTROL.

LAZ038-040-048-061>063-065>067-069-280500-
SOUTHEAST LOUISIANA

CITY           SKY/WX    TMP DP  RH WIND       PRES   REMARKS
N.O. AUDUBON     N/A     83  76  81 MISG        N/A
N.O. INTL ARPT PTCLDY    82  76  81 SW12      30.07R
N.O. LAKEFRONT CLEAR     85  76  74 SW13      30.06S
N.O. DOWNTOWN*   N/A     84  73  70 SW6       30.07R
SLIDELL        PTCLDY    84  76  76 CALM      30.05R
BATON ROUGE    PTCLDY    82  76  81 SW10      30.06R
BOOTHVILLE     CLEAR     84  76  76 W10       30.08R
BELLE CHASSE   CLEAR     82  76  81 W6        30.06S
BOGALUSA*        N/A     82  76  82 CALM      30.07R
GALLIANO*      NOT AVBL
NEW ROADS*       N/A     81  77  87 S5        30.06R
GONZALES*        N/A     81  80  96 CALM      30.06R
HAMMOND*       PTCLDY    82  73  74 SW5       30.08R
HOUMA*         CLEAR     81  74  79 CALM      30.07S
PORT FOURCHON* PTCLDY    84  75  74 SW9       30.10R

$$

MSZ070-080>082-280500-
SOUTHERN MISSISSIPPI

CITY           SKY/WX    TMP DP  RH WIND       PRES   REMARKS
MCCOMB         PTCLDY    79  75  87 CALM      30.06R
GULFPORT       PTCLDY    86  77  74 CALM      30.04S HX  97
BILOXI         PTCLDY    84  79  83 VRB7      30.05R HX  96
PASCAGOULA     PTCLDY    82  78  88 SW3       30.04S

$$

COASTAL OBSERVATIONS
LAKE AND NEARSHORE STATIONS

STATION/POSITION TIME  TEMP    WIND        PRES    WAVE
                       AIR SEA DIR/SP/G            HT/PER
                 (UTC) (F)     (DEG/KT/KT) (MB)    (FT/S)
PASCAGOULA       0400   85     240/ 14/ 17 1016.9
WAVELAND YACHT   0400   84     260/  5/  8 1017.0
GRAND ISLE       0400   85 88  260/  9/ 10 1019.3
SOUTHWEST PASS   0400   85 84  260/ 15/ 17 1019.0
NEW CANAL        0400   85 85  240/  6/  9 1018.5
SHELL BEACH      0400   82 83  250/  7/  8 1018.0

OFFSHORE STATIONS

STATION/POSITION TIME  TEMP    WIND        PRES    WAVE
                       AIR SEA DIR/SP/G            HT/PER
                 (UTC) (F)     (DEG/KT/KT) (MB)    (FT/S)
64 S DAUPHIN ISL 0312   85 86  250/ 16/ 17 1018.4

$$




USA.gov is the U.S. government's official web portal to all federal, state and local government web resources and services.